K3RDE-13 Weather Reports


Display with metric or nautical units.
time (UTC)temp
F
wind
direction
speed
MPH
gust
MPH
rain 1hr
in
rain 24hr
in
rain mn
in
humidity
%
barometer
mb
20260904145717 82 233 1.0 3.0 0.00 0.00 0.00 66 1012.7
20260904145213 82 204 1.0 2.0 0.00 0.00 0.00 68 1012.8
20260904144708 81 197 2.0 2.0 0.00 0.00 0.00 67 1012.8
20260904144204 81 157 2.0 4.0 0.00 0.00 0.00 66 1012.8
20260904143659 81 179 1.0 2.0 0.00 0.00 0.00 73 1012.8
20260904143155 81 304 2.0 3.0 0.00 0.00 0.00 68 1013.0
20260904142652 80 218 2.0 3.0 0.00 0.00 0.00 72 1012.8
20260904142147 80 221 1.0 3.0 0.00 0.00 0.00 72 1012.9
20260904141642 79 184 1.0 3.0 0.00 0.00 0.00 73 1012.6
20260904141138 79 203 2.0 3.0 0.00 0.00 0.00 73 1012.7
20260904140633 79 144 2.0 2.0 0.00 0.00 0.00 74 1012.7
20260904140133 79 244 2.0 2.0 0.00 0.00 0.00 76 1012.6
20260904135632 79 240 1.0 3.0 0.00 0.00 0.00 75 1012.8
20260904135129 79 305 1.0 2.0 0.00 0.00 0.00 75 1012.7
20260904134624 79 219 1.0 3.0 0.00 0.00 0.00 75 1012.7
20260904134123 78 222 0.0 2.0 0.00 0.00 0.00 77 1012.7
20260904133619 78 226 1.0 2.0 0.00 0.00 0.00 78 1012.7
20260904133114 78 190 1.0 2.0 0.00 0.00 0.00 79 1012.6
20260904132614 78 189 2.0 3.0 0.00 0.00 0.00 76 1012.7
20260904132109 78 206 2.0 2.0 0.00 0.00 0.00 76 1012.8
20260904131608 78 211 1.0 1.0 0.00 0.00 0.00 79 1012.7
20260904131104 78 220 1.0 1.0 0.00 0.00 0.00 79 1012.9
20260904130603 77 80 0.0 0.0 0.00 0.00 0.00 78 1012.7
20260904130058 78 228 1.0 2.0 0.00 0.00 0.00 77 1012.9
20260904125555 78 147 1.0 2.0 0.00 0.00 0.00 76 1012.8
20260904125055 77 221 1.0 1.0 0.00 0.00 0.00 78 1012.9
20260904124550 77 221 1.0 1.0 0.00 0.00 0.00 78 1013.1
20260904124046 76 220 1.0 3.0 0.00 0.00 0.00 78 1013.0
20260904123546 75 221 0.0 1.0 0.00 0.00 0.00 80 1013.1
20260904123042 75 222 1.0 1.0 0.00 0.00 0.00 81 1013.1
20260904122542 74 221 1.0 2.0 0.00 0.00 0.00 82 1013.3
20260904122037 74 211 2.0 2.0 0.00 0.00 0.00 83 1013.1
20260904121532 73 193 1.0 2.0 0.00 0.00 0.00 85 1013.2
20260904121028 71 192 1.0 2.0 0.00 0.00 0.00 88 1013.3
20260904120524 71 187 1.0 1.0 0.00 0.00 0.00 90 1013.2
20260904120019 71 186 0.0 1.0 0.00 0.00 0.00 90 1013.0
20260904115515 70 186 0.0 1.0 0.00 0.00 0.00 91 1013.3
20260904115015 70 186 0.0 0.0 0.00 0.00 0.00 93 1013.2
20260904114510 69 186 0.0 0.0 0.00 0.00 0.00 94 1012.9
20260904114005 68 186 0.0 1.0 0.00 0.00 0.00 95 1012.9
20260904113504 68 186 0.0 0.0 0.00 0.00 0.00 96 1012.8
20260904113004 68 186 0.0 0.0 0.00 0.00 0.00 96 1012.8
20260904112459 68 186 0.0 1.0 0.00 0.00 0.00 97 1012.9
20260904111955 68 186 1.0 0.0 0.00 0.00 0.00 97 1012.9
20260904111450 68 186 0.0 0.0 0.00 0.00 0.00 97 1013.1
20260904110946 68 186 0.0 0.0 0.00 0.00 0.00 96 1013.1
20260904110445 68 186 0.0 0.0 0.00 0.00 0.00 96 1012.7
20260904105940 68 186 0.0 0.0 0.00 0.00 0.00 96 1012.6
20260904105435 68 186 0.0 1.0 0.00 0.00 0.00 96 1012.6
20260904104930 68 186 0.0 0.0 0.00 0.00 0.00 96 1012.4
20260904104430 68 186 0.0 0.0 0.00 0.00 0.00 95 1012.2
20260904103927 68 186 0.0 0.0 0.00 0.00 0.00 95 1012.4
20260904103422 68 186 0.0 0.0 0.00 0.00 0.00 94 1012.4
20260904102918 68 186 0.0 0.0 0.00 0.00 0.00 94 1012.1
20260904102414 69 185 0.0 0.0 0.00 0.00 0.00 94 1012.3
20260904101909 69 186 0.0 0.0 0.00 0.00 0.00 94 1012.1
20260904101406 69 186 0.0 0.0 0.00 0.00 0.00 94 1012.3
20260904100901 69 186 0.0 0.0 0.00 0.00 0.00 93 1012.2
20260904100357 69 186 0.0 0.0 0.00 0.00 0.00 93 1012.0
20260904095851 69 186 0.0 0.0 0.00 0.00 0.00 92 1011.9
20260904095346 69 186 0.0 0.0 0.00 0.00 0.00 92 1011.9
20260904094841 69 186 0.0 0.0 0.00 0.00 0.00 92 1012.0
20260904094336 70 186 0.0 0.0 0.00 0.00 0.00 92 1012.0
20260904093833 70 186 0.0 0.0 0.00 0.00 0.00 91 1011.9
20260904093332 70 186 0.0 0.0 0.00 0.00 0.00 92 1011.9
20260904092828 70 186 0.0 0.0 0.00 0.00 0.00 92 1011.9
20260904092324 70 186 0.0 1.0 0.00 0.00 0.00 91 1012.1
20260904091820 70 188 1.0 1.0 0.00 0.00 0.00 92 1012.0
20260904091321 70 187 2.0 3.0 0.00 0.00 0.00 93 1012.2
20260904090815 69 211 0.0 1.0 0.00 0.00 0.00 94 1012.0
20260904090312 69 248 0.0 0.0 0.00 0.00 0.00 94 1012.1
20260904085807 69 256 0.0 0.0 0.00 0.00 0.00 95 1012.2
20260904085305 69 256 1.0 1.0 0.00 0.00 0.00 94 1012.2
20260904084802 70 256 0.0 0.0 0.00 0.00 0.00 94 1012.2
20260904084258 70 231 0.0 0.0 0.00 0.00 0.00 94 1012.2
20260904083754 70 231 1.0 2.0 0.00 0.00 0.00 94 1012.3
20260904083251 69 225 1.0 1.0 0.00 0.00 0.00 94 1012.5
20260904082751 70 224 0.0 1.0 0.00 0.00 0.00 95 1012.5
20260904082245 70 224 0.0 0.0 0.00 0.00 0.00 94 1012.1
20260904081741 70 224 0.0 1.0 0.00 0.00 0.00 93 1012.3
20260904081237 70 264 0.0 0.0 0.00 0.00 0.00 92 1012.3
20260904080732 70 264 0.0 0.0 0.00 0.00 0.00 91 1012.7
20260904080228 70 264 0.0 0.0 0.00 0.00 0.00 91 1012.5
20260904075724 71 263 0.0 0.0 0.00 0.00 0.00 91 1012.5
20260904075219 71 263 0.0 0.0 0.00 0.00 0.00 91 1012.4
20260904074718 71 263 1.0 3.0 0.00 0.00 0.00 90 1012.3
20260904074212 71 237 1.0 2.0 0.00 0.00 0.00 91 1012.2
20260904073708 71 280 1.0 3.0 0.00 0.00 0.00 91 1012.2
20260904073205 71 248 0.0 1.0 0.00 0.00 0.00 91 1012.0
20260904072700 71 245 0.0 1.0 0.00 0.00 0.00 92 1012.1
20260904072200 70 244 0.0 3.0 0.00 0.00 0.00 91 1011.9
20260904071656 70 251 1.0 1.0 0.00 0.00 0.00 92 1011.9
20260904071151 70 250 1.0 1.0 0.00 0.00 0.00 93 1012.0
20260904070650 69 249 0.0 1.0 0.00 0.00 0.00 94 1011.9
20260904070149 69 250 0.0 0.0 0.00 0.00 0.00 95 1011.8
20260904065650 69 250 1.0 1.0 0.00 0.00 0.00 95 1011.7
20260904065148 69 251 0.0 0.0 0.00 0.00 0.00 95 1011.6
20260904064647 69 251 0.0 0.0 0.00 0.00 0.00 95 1011.5
20260904064142 70 251 1.0 1.0 0.00 0.00 0.00 95 1011.5
20260904063638 70 250 0.0 1.0 0.00 0.00 0.00 94 1011.3
20260904063134 70 250 0.0 0.0 0.00 0.00 0.00 94 1011.2
20260904062630 70 250 0.0 0.0 0.00 0.00 0.00 94 1011.1
20260904062125 71 250 0.0 0.0 0.00 0.00 0.00 94 1011.0
20260904061621 71 250 0.0 0.0 0.00 0.00 0.00 93 1011.0
20260904061117 71 250 0.0 0.0 0.00 0.00 0.00 92 1010.9
20260904060613 71 250 0.0 0.0 0.00 0.00 0.00 91 1010.9
20260904060110 71 251 0.0 1.0 0.00 0.00 0.00 92 1011.0
20260904055610 72 251 0.0 0.0 0.00 0.00 0.00 90 1011.1
20260904055105 72 251 0.0 0.0 0.00 0.00 0.00 89 1011.2
20260904054601 72 251 1.0 1.0 0.00 0.00 0.00 88 1011.0
20260904054056 72 250 0.0 0.0 0.00 0.00 0.00 88 1011.0
20260904053556 73 250 1.0 1.0 0.00 0.00 0.00 87 1011.0
20260904053051 73 251 0.0 0.0 0.00 0.00 0.00 86 1010.7
20260904052548 73 251 1.0 1.0 0.00 0.00 0.00 85 1011.0
20260904052043 74 250 0.0 0.0 0.00 0.00 0.00 84 1010.9
20260904051540 74 252 1.0 2.0 0.00 0.00 0.00 84 1011.3
20260904051039 74 260 0.0 1.0 0.00 0.00 0.00 85 1011.3
20260904050535 74 259 1.0 1.0 0.00 0.00 0.00 85 1011.1
20260904050031 74 258 1.0 1.0 0.00 0.00 0.00 85 1011.4
20260904045526 74 261 1.0 2.0 0.00 0.00 0.00 86 1011.4
20260904045021 74 283 1.0 1.0 0.00 0.00 0.00 86 1011.3
20260904044516 75 231 2.0 3.0 0.00 0.00 0.00 84 1011.4
20260904044013 75 254 1.0 1.0 0.00 0.00 0.00 86 1011.6
20260904043509 75 254 1.0 2.0 0.00 0.00 0.00 86 1011.6
20260904043004 76 209 3.0 8.0 0.00 0.00 0.00 84 1011.4
20260904042501 76 251 2.0 6.0 0.00 0.00 0.00 87 1011.7
20260904041955 76 260 1.0 4.0 0.00 0.00 0.00 91 1011.6
20260904041452 76 184 2.0 3.0 0.00 0.00 0.00 93 1011.8
20260904040947 75 244 4.0 4.0 0.00 0.00 0.00 94 1011.9
20260904040447 76 263 1.0 2.0 0.00 0.00 0.00 93 1011.7
20260904035943 76 263 1.0 1.0 0.00 1.75 1.75 92 1011.8
20260904035439 76 263 1.0 1.0 0.00 1.75 1.75 92 1011.8
20260904034938 77 263 0.0 1.0 0.00 1.75 1.75 91 1012.0
20260904034433 76 268 2.0 6.0 0.00 1.75 1.75 91 1012.1
20260904033929 76 290 1.0 2.0 0.00 1.75 1.75 92 1012.2
20260904033425 76 219 2.0 4.0 0.00 1.75 1.75 92 1012.3
20260904032921 76 230 1.0 2.0 0.00 1.75 1.75 92 1012.2
20260904032416 76 231 1.0 2.0 0.00 1.75 1.75 93 1012.3
20260904031915 75 297 2.0 2.0 0.00 1.75 1.75 95 1012.4
20260904031411 75 307 0.0 1.0 0.00 1.75 1.75 95 1012.4
20260904030907 75 307 0.0 0.0 0.00 1.75 1.75 96 1012.5
20260904030402 75 307 0.0 0.0 0.00 1.75 1.75 95 1012.7
20260904025857 75 307 0.0 0.0 0.00 1.75 1.75 96 1012.9
20260904025353 75 307 0.0 0.0 0.00 1.75 1.75 95 1013.0
20260904024853 75 307 0.0 0.0 0.00 1.75 1.75 95 1013.0
20260904024348 74 307 0.0 0.0 0.00 1.75 1.75 95 1013.1
20260904023845 74 307 0.0 1.0 0.00 1.75 1.75 95 1013.0
20260904023341 75 307 1.0 1.0 0.00 1.75 1.75 94 1012.7
20260904022839 75 307 1.0 1.0 0.00 1.75 1.75 94 1012.6
20260904022336 75 307 0.0 0.0 0.00 1.75 1.75 94 1012.4
20260904021833 75 307 0.0 0.0 0.00 1.75 1.75 94 1012.4
20260904021333 75 307 0.0 0.0 0.00 1.75 1.75 93 1012.4
20260904020828 75 307 1.0 1.0 0.00 1.75 1.75 93 1012.3
20260904020324 75 307 0.0 0.0 0.00 1.75 1.75 94 1012.2
20260904015822 75 307 0.0 0.0 0.00 1.75 1.75 93 1012.2
20260904015318 75 307 0.0 0.0 0.00 1.75 1.75 93 1012.2
20260904014816 75 307 0.0 0.0 0.00 1.75 1.75 93 1012.3
20260904014311 76 307 1.0 1.0 0.00 1.75 1.75 92 1012.2
20260904013807 76 307 0.0 0.0 0.00 1.75 1.75 91 1012.2
20260904013303 76 307 1.0 1.0 0.00 1.75 1.75 90 1012.1
20260904012759 76 307 0.0 0.0 0.00 1.75 1.75 89 1012.0
20260904012253 76 307 0.0 0.0 0.00 1.75 1.75 90 1011.8
20260904011752 77 307 0.0 1.0 0.00 1.75 1.75 90 1012.1
20260904011248 77 307 0.0 0.0 0.00 1.75 1.75 90 1012.1
20260904010748 77 307 0.0 0.0 0.00 1.75 1.75 89 1012.3
20260904010245 77 307 0.0 0.0 0.00 1.75 1.75 89 1012.6
20260904005745 77 307 0.0 0.0 0.00 1.75 1.75 88 1012.8
20260904005241 77 307 0.0 0.0 0.00 1.75 1.75 89 1012.6
20260904004736 77 307 0.0 0.0 0.00 1.75 1.75 89 1012.6
20260904004232 77 307 0.0 0.0 0.00 1.75 1.75 89 1012.7
20260904003732 77 307 0.0 0.0 0.00 1.75 1.75 89 1012.8
20260904003228 77 307 0.0 0.0 0.00 1.75 1.75 89 1012.6
20260904002724 77 307 0.0 0.0 0.00 1.75 1.75 90 1012.7
20260904002220 77 307 1.0 1.0 0.00 1.75 1.75 89 1012.7
20260904001714 78 307 1.0 1.0 0.00 1.75 1.75 88 1012.6
20260904001214 78 307 0.0 0.0 0.00 1.75 1.75 87 1012.5
20260904000709 78 307 0.0 0.0 0.00 1.75 1.75 86 1012.4
20260904000204 78 307 0.0 0.0 0.00 1.75 1.75 86 1012.5
20260903235703 78 307 0.0 0.0 0.00 1.75 1.75 84 1012.3
20260903235200 78 307 0.0 0.0 0.00 1.75 1.75 84 1012.2
20260903234654 78 307 0.0 0.0 0.00 1.75 1.75 84 1012.3
20260903234150 79 307 0.0 0.0 0.00 1.75 1.75 82 1012.3
20260903233646 79 307 0.0 0.0 0.00 1.75 1.75 82 1012.3
20260903233142 79 307 0.0 0.0 0.00 1.75 1.75 82 1012.0
20260903232636 79 307 0.0 0.0 0.00 1.75 1.75 82 1012.0
20260903232132 80 307 0.0 0.0 0.00 1.75 1.75 81 1012.3
20260903231631 80 307 0.0 0.0 0.00 1.75 1.75 79 1012.1
20260903231126 80 307 0.0 0.0 0.00 1.75 1.75 78 1012.1
20260903230622 81 307 0.0 0.0 0.00 1.75 1.75 77 1012.2
20260903230121 81 307 0.0 0.0 0.00 1.75 1.75 77 1012.1
20260903225618 81 307 0.0 0.0 0.00 1.75 1.75 76 1012.1
20260903225114 81 307 1.0 1.0 0.00 1.75 1.75 76 1012.1
20260903224610 82 307 0.0 0.0 0.00 1.75 1.75 74 1012.0
20260903224107 82 307 0.0 1.0 0.00 1.75 1.75 74 1012.1
20260903223607 82 307 1.0 1.0 0.00 1.75 1.75 75 1012.0
20260903223105 82 307 0.0 1.0 0.00 1.75 1.75 74 1012.0
20260903222600 83 307 2.0 2.0 0.00 1.75 1.75 74 1012.3
20260903222059 84 307 1.0 3.0 0.00 1.75 1.75 72 1011.8
20260903221555 85 307 1.0 2.0 0.00 1.75 1.75 70 1011.7
20260903221052 86 307 0.0 0.0 0.00 1.75 1.75 68 1011.7
20260903220551 86 307 0.0 1.0 0.00 1.75 1.75 67 1011.9
20260903220050 86 307 0.0 1.0 0.00 1.75 1.75 68 1011.8
20260903215550 87 307 1.0 1.0 0.00 1.75 1.75 65 1011.7
20260903215050 88 307 1.0 1.0 0.00 1.75 1.75 64 1011.8
20260903214549 88 305 2.0 3.0 0.00 1.75 1.75 63 1011.8
20260903214045 87 247 1.0 2.0 0.00 1.75 1.75 67 1011.8
20260903213540 86 246 1.0 1.0 0.00 1.75 1.75 67 1011.8
20260903213036 87 247 1.0 1.0 0.00 1.75 1.75 65 1011.8
20260903212532 88 267 2.0 2.0 0.00 1.75 1.75 63 1011.4
20260903212027 88 274 2.0 3.0 0.00 1.75 1.75 63 1011.6
20260903211521 88 248 2.0 2.0 0.00 1.75 1.75 62 1011.4
20260903211018 88 247 2.0 2.0 0.00 1.75 1.75 63 1011.5
20260903210513 87 247 1.0 2.0 0.00 1.75 1.75 66 1011.5
20260903210009 87 246 1.0 1.0 0.00 1.75 1.75 64 1011.6
20260903205508 88 213 1.0 1.0 0.00 1.75 1.75 62 1011.5
20260903205002 89 213 1.0 2.0 0.00 1.75 1.75 61 1011.6
20260903204458 89 213 1.0 2.0 0.00 1.75 1.75 57 1011.5
20260903203954 89 211 1.0 4.0 0.00 1.75 1.75 58 1011.5
20260903203449 87 233 1.0 3.0 0.00 1.75 1.75 58 1011.6
20260903202949 87 233 1.0 2.0 0.00 1.75 1.75 62 1011.6
20260903202445 87 233 1.0 2.0 0.00 1.75 1.75 60 1011.7
20260903201945 87 236 2.0 3.0 0.00 1.75 1.75 59 1011.7
20260903201440 87 254 2.0 6.0 0.00 1.75 1.75 61 1012.0
20260903200939 88 201 2.0 4.0 0.00 1.75 1.75 60 1011.7
20260903200434 88 237 2.0 2.0 0.00 1.75 1.75 64 1011.9
20260903195929 88 222 1.0 2.0 0.00 1.75 1.75 58 1011.9
20260903195426 88 209 2.0 2.0 0.00 1.75 1.75 59 1012.1
20260903194920 88 326 0.0 1.0 0.00 1.75 1.75 64 1012.1
20260903194416 88 257 2.0 3.0 0.00 1.75 1.75 65 1012.1
20260903193911 88 226 2.0 2.0 0.00 1.75 1.75 58 1012.1
20260903193408 88 228 4.0 6.0 0.00 1.75 1.75 58 1012.2
20260903192902 87 237 2.0 4.0 0.00 1.75 1.75 63 1012.4
20260903192358 87 256 1.0 2.0 0.00 1.75 1.75 66 1012.4
20260903191854 87 226 1.0 4.0 0.00 1.75 1.75 66 1012.4
20260903191350 87 229 2.0 7.0 0.00 1.75 1.75 66 1012.6
20260903190849 87 222 2.0 3.0 0.00 1.75 1.75 62 1012.6
20260903190344 87 217 2.0 3.0 0.00 1.75 1.75 66 1012.7
20260903185844 87 223 2.0 2.0 0.00 1.75 1.75 62 1012.7
20260903185344 87 226 2.0 4.0 0.00 1.75 1.75 61 1012.9
20260903184840 87 201 4.0 4.0 0.00 1.75 1.75 58 1012.9
20260903184337 87 215 2.0 3.0 0.00 1.75 1.75 62 1013.0
20260903183831 87 219 2.0 3.0 0.00 1.75 1.75 63 1012.9
20260903183326 87 190 2.0 3.0 0.00 1.75 1.75 63 1013.1
20260903182825 86 216 2.0 2.0 0.00 1.75 1.75 64 1013.1
20260903182319 87 222 2.0 4.0 0.00 1.75 1.75 65 1013.0
20260903181819 86 260 2.0 2.0 0.00 1.75 1.75 67 1013.3
20260903181314 87 331 2.0 7.0 0.00 1.75 1.75 65 1013.1
20260903180814 86 221 1.0 3.0 0.00 1.75 1.75 71 1013.2
20260903180314 86 219 2.0 2.0 0.00 1.75 1.75 65 1013.3
20260903175813 86 261 1.0 2.0 0.00 1.75 1.75 68 1013.4
20260903175313 86 249 2.0 4.0 0.00 1.75 1.75 68 1013.3
20260903174808 86 214 4.0 4.0 0.00 1.75 1.75 63 1013.3
20260903174303 86 226 4.0 4.0 0.00 1.75 1.75 63 1013.3
20260903173802 86 227 1.0 7.0 0.00 1.75 1.75 66 1013.5
20260903173258 85 232 1.0 3.0 0.00 1.75 1.75 69 1013.6
20260903172754 86 287 5.0 6.0 0.00 1.75 1.75 65 1013.4
20260903172248 85 256 1.0 2.0 0.00 1.75 1.75 71 1013.5
20260903171744 86 215 1.0 4.0 0.00 1.75 1.75 69 1013.9
20260903171239 84 232 2.0 3.0 0.00 1.75 1.75 71 1013.8
20260903170738 84 245 1.0 3.0 0.00 1.75 1.75 71 1014.1
20260903170234 84 229 1.0 2.0 0.00 1.75 1.75 72 1014.1
20260903165732 84 231 2.0 2.0 0.00 1.75 1.75 75 1014.2
20260903165227 83 244 2.0 2.0 0.00 1.75 1.75 73 1014.1
20260903164721 83 333 2.0 6.0 0.00 1.75 1.75 71 1014.2
20260903164217 82 291 2.0 3.0 0.00 1.75 1.75 73 1014.4
20260903163717 81 262 1.0 2.0 0.00 1.75 1.75 83 1014.5
20260903163213 80 260 1.0 3.0 0.00 1.75 1.75 78 1014.4
20260903162709 80 243 1.0 7.0 0.00 1.75 1.75 77 1014.5
20260903162205 81 288 2.0 8.0 0.00 1.75 1.75 77 1014.6
20260903161701 81 214 2.0 6.0 0.00 1.75 1.75 74 1014.7
20260903161155 80 207 1.0 3.0 0.00 1.75 1.75 78 1014.9
20260903160651 80 213 2.0 7.0 0.00 1.75 1.75 75 1015.0
20260903160145 80 254 4.0 4.0 0.00 1.75 1.75 78 1015.2
20260903155644 79 219 1.0 3.0 0.00 1.75 1.75 82 1015.1
20260903155139 78 238 1.0 1.0 0.00 1.75 1.75 83 1015.3
20260903154635 78 236 4.0 3.0 0.00 1.75 1.75 82 1015.2
20260903154131 79 235 2.0 3.0 0.00 1.75 1.75 82 1015.1
20260903153626 79 291 2.0 3.0 0.00 1.75 1.75 80 1015.3
20260903153122 79 225 2.0 4.0 0.00 1.75 1.75 81 1015.0
20260903152618 78 316 1.0 3.0 0.00 1.75 1.75 86 1015.2
20260903152114 77 248 2.0 2.0 0.00 1.75 1.75 84 1015.4
20260903151613 77 227 1.0 4.0 0.00 1.75 1.75 85 1015.6
20260903151109 77 231 2.0 3.0 0.00 1.75 1.75 85 1015.6
20260903150608 77 239 5.0 7.0 0.00 1.75 1.75 84 1015.6
20260903150103 78 228 1.0 2.0 0.00 1.75 1.75 85 1016.2